Погода в Арадане

Россия / Красноярский край     52°34′32″N   93°26′35″E
темп.,
°C
ветер,
м/с
пор.,
м/с
влажн.,
%
обл.,
%
осадки,
мм/ч
давл.,
гПа
погр.,
м
28 февраля, вс
вс2801:00−25с009797 0.1 104120
04:00−27вюв019897 0.0 104119
07:00−27ю119998 0.0 104319
10:00−22ююз1295100 0.0 1042225
13:00−17ююз2382100 0.0 1039605
16:00−16ю2383100 0.0 1037597
19:00−23ю119699 0.0 103820
22:00−25ююв119599 0.0 103820
1 марта, пн
пн101:00−23ююз119599 0.0 103621
04:00−24ююз1196100 0.0 103420
07:00−24ююз1195100 0.0 103323
10:00−20ююз2292100 0.0 1030255
13:00−15ю2483100 0.0 1025530
16:00−14ю2485100 0.1 1022473
19:00−17ю2396100 0.3 102281
22:00−19ю1297100 0.1 102136
2 марта, вт
вт201:00−19ююз1197100 0.2 102030
04:00−19ююз1295100 0.0 101930
07:00−18ю2398100 0.3 101890
10:00−15ююв2395100 0.6 1017194
13:00−8ююз3591100 0.9 1016460
16:00−6ююз2492100 0.8 1015388
19:00−10ю2397100 1.3 1017124
22:00−13ю129599 0.0 101821
3 марта, ср
ср301:00−13ю119699 0.1 101724
04:00−13ююз1297100 0.2 101622
07:00−15ю1198100 0.3 101720
10:00−11ю1294100 0.1 1016205
13:00−6ю2388100 0.2 1015476
16:00−5ююз139392 0.9 1015354
19:00−10ссв229296 1.8 101736
22:00−14ссв1292100 0.0 102021
4 марта, чт
чт401:00−16св119690 0.1 102220
04:00−16ссв119669 0.1 102420
07:00−16ссв129385 0.1 102721
10:00−10с018947 0.0 1027214
13:00−7ююз238245 0.1 1026762
16:00−6ююз227895 0.3 1025866
19:00−12ююв119175 0.4 102721
22:00−15юв119367 0.0 102920